User: anonymous   Login
Location: Unspecified
(0.0000°N, 0.0000°E)
Time: 08:19:56
(UTC+00:00)
Language:

PHOENIX - Orbit

View from above orbital plane
View from above orbital plane
View from above satellite
View from above satellite

Ground track
Ground track

The orbit data is extracted from the following two-line orbital elements,

1 42706U 98067LP  18267.20592275 +.00041358 +00000-0 +29461-3 0  9991
2 42706 051.6341 210.2257 0001713 132.4153 227.6991 15.73400772077478
Epoch (UTC): 24 September 2018 04:56:31
Eccentricity: 0.0001713
inclination: 51.6341°
perigee height: 348 km
apogee height: 350 km
right ascension of ascending node: 210.2257°
argument of perigee: 132.4153°
revolutions per day: 15.73400772
mean anomaly at epoch: 227.6991°
orbit number at epoch: 7747

The dashed part of the orbit path shows where the satellite is in the earth's shadow,  

DLR